Orbital Elements at Epoch 2459200.5 (2020-Dec-17.0) TDB
Reference: JPL 17 (heliocentric ecliptic J2000)
Element | Value | Uncertainty (1-sigma) | Units |
e | .134643048394976 | 3.0809e-08 | |
a | 2.331788921909245 | 7.7502e-09 | au |
q | 2.01782975324975 | 6.9086e-08 | au |
i | 5.965788807615217 | 3.8598e-06 | deg |
node | 124.5453446817737 | 4.4686e-05 | deg |
peri | 156.377152428434 | 4.9181e-05 | deg |
M | 85.59819353210383 | 2.2149e-05 | deg |
tp | 2458891.260916458543 (2020-Feb-11.76091646) | 7.9589e-05 | TDB |
period | 1300.565648423075 3.56 | 6.4841e-06 1.775e-08 | d yr |
n | .2768026361733428 | 1.38e-09 | deg/d |
Q | 2.645748090568741 | 8.7937e-09 | au |
|
| | Orbit Determination Parameters
Additional Information
|